Location: Chinna Viriv?da
(16.5281°N, 81.0493°E)
Time: 11:16:03
(UTC+00:00)

NOSS 3-4 (A) - Pass Details

Date: 14 April 2026
Orbit: 769 x 1442 km, 63.4° (Epoch: 10 January)

Event Time Altitude Azimuth Distance (km) Brightness Sun altitude
Rises 14:18:49 0° 210° (SSW) 3,332 6.5 -21.3°
Reaches altitude 10° 14:21:18 10° 213° (SSW) 2,354 5.7 -21.8°
Maximum altitude 14:26:33 67° 295° (WNW) 830 3.3 -23.0°
Drops below altitude 10° 14:31:45 10° 18° (NNE) 2,324 5.5 -24.2°
Sets 14:34:12 0° 21° (NNE) 3,287 6.3 -24.8°
